Location: Clermont
(50.2608°N, 4.3172°E)
Time: 04:59:11
(UTC+00:00)

Cosmos 1066 Rocket - Pass Details

Date: 13 August 2020
Orbit: 798 x 895 km, 81.2° (Epoch: 23 September)

Event Time Altitude Azimuth Distance (km) Brightness Sun altitude
Rises 21:37:53 0° 350° (N) 3,472 8.6 -19.5°
Reaches altitude 10° 21:40:26 10° 355° (N) 2,516 7.6 -19.7°
Maximum altitude 21:46:01 54° 73° (ENE) 1,022 4.5 -20.2°
Enters shadow 21:47:53 38° 127° (SE) 1,273 4.6 -20.3°
